Time,TemperatureF,DewpointF,PressureIn,WindDirection,WindDirectionDegrees,WindSpeedMPH,WindSpeedGustMPH,Humidity,HourlyPrecipIn,Conditions,Clouds,dailyrainin,SoftwareType,DateUTC
2014-02-01 00:02:00,54.8,42.0,29.98,NE,46,2.0,4.0,62,0.00,,,0.00,weatherlink.com 1.10,2014-02-01 06:02:00,
2014-02-01 00:17:00,55.2,42.0,29.97,ESE,113,2.0,6.0,61,0.00,,,0.00,weatherlink.com 1.10,2014-02-01 06:17:00,
2014-02-01 00:32:00,54.7,42.0,29.98,South,173,0.0,4.0,62,0.00,,,0.00,weatherlink.com 1.10,2014-02-01 06:32:00,
2014-02-01 00:47:00,54.8,42.0,29.98,South,170,1.0,4.0,62,0.00,,,0.00,weatherlink.com 1.10,2014-02-01 06:47:00,
2014-02-01 01:02:00,54.8,42.0,29.98,SW,224,2.0,4.0,63,0.00,,,0.00,weatherlink.com 1.10,2014-02-01 07:02:00,
2014-02-01 01:18:00,54.9,42.0,29.98,South,177,0.0,4.0,62,0.00,,,0.00,weatherlink.com 1.10,2014-02-01 07:18:00,
2014-02-01 01:33:00,54.7,42.0,29.98,SW,235,0.0,5.0,63,0.00,,,0.00,weatherlink.com 1.10,2014-02-01 07:33:00,
2014-02-01 01:48:00,54.5,42.0,29.98,West,266,3.0,6.0,63,0.00,,,0.00,weatherlink.com 1.10,2014-02-01 07:48:00,
2014-02-01 02:03:00,54.3,42.0,29.98,SSW,193,0.0,4.0,64,0.00,,,0.00,weatherlink.com 1.10,2014-02-01 08:03:00,
2014-02-01 02:18:00,54.1,42.0,29.98,SW,217,2.0,4.0,64,0.00,,,0.00,weatherlink.com 1.10,2014-02-01 08:18:00,
2014-02-01 02:33:00,53.8,42.0,29.98,SSW,209,2.0,3.0,65,0.00,,,0.00,weatherlink.com 1.10,2014-02-01 08:33:00,
2014-02-01 02:48:00,53.8,42.0,29.97,SSW,210,0.0,4.0,65,0.00,,,0.00,weatherlink.com 1.10,2014-02-01 08:48:00,
2014-02-01 03:03:00,53.7,42.0,29.98,SSE,165,1.0,5.0,65,0.00,,,0.00,weatherlink.com 1.10,2014-02-01 09:03:00,
2014-02-01 03:18:00,53.3,42.0,29.97,SSW,204,1.0,3.0,66,0.00,,,0.00,weatherlink.com 1.10,2014-02-01 09:18:00,
2014-02-01 03:33:00,53.0,42.0,29.97,South,169,1.0,2.0,66,0.00,,,0.00,weatherlink.com 1.10,2014-02-01 09:33:00,
2014-02-01 03:48:00,52.9,42.0,29.97,East,97,0.0,6.0,66,0.00,,,0.00,weatherlink.com 1.10,2014-02-01 09:48:00,
2014-02-01 04:03:00,52.9,41.0,29.97,SSE,159,0.0,5.0,65,0.00,,,0.00,weatherlink.com 1.10,2014-02-01 10:03:00,
2014-02-01 04:18:00,52.4,41.0,29.96,SSE,163,0.0,2.0,65,0.00,,,0.00,weatherlink.com 1.10,2014-02-01 10:18:00,
2014-02-01 04:33:00,52.4,40.0,29.96,SW,236,0.0,4.0,62,0.00,,,0.00,weatherlink.com 1.10,2014-02-01 10:33:00,
2014-02-01 04:48:00,52.2,39.0,29.97,SSE,163,0.0,2.0,61,0.00,,,0.00,weatherlink.com 1.10,2014-02-01 10:48:00,
2014-02-01 05:03:00,52.1,38.0,29.98,ESE,108,0.0,2.0,59,0.00,,,0.00,weatherlink.com 1.10,2014-02-01 11:03:00,
2014-02-01 05:18:00,52.0,37.0,29.98,North,4,1.0,5.0,57,0.00,,,0.00,weatherlink.com 1.10,2014-02-01 11:18:00,
2014-02-01 05:33:00,52.0,37.0,29.97,SE,138,0.0,3.0,56,0.00,,,0.00,weatherlink.com 1.10,2014-02-01 11:33:00,
2014-02-01 05:48:00,51.8,37.0,29.97,SSE,155,0.0,2.0,57,0.00,,,0.00,weatherlink.com 1.10,2014-02-01 11:48:00,
2014-02-01 06:03:00,51.8,37.0,29.98,SW,224,0.0,3.0,58,0.00,,,0.00,weatherlink.com 1.10,2014-02-01 12:03:00,
2014-02-01 06:18:00,51.9,38.0,29.98,SW,222,0.0,4.0,59,0.00,,,0.00,weatherlink.com 1.10,2014-02-01 12:18:00,
2014-02-01 06:33:00,52.0,38.0,29.99,SSW,209,2.0,4.0,60,0.00,,,0.00,weatherlink.com 1.10,2014-02-01 12:33:00,
2014-02-01 06:48:00,51.9,39.0,29.99,SW,229,1.0,2.0,61,0.00,,,0.00,weatherlink.com 1.10,2014-02-01 12:48:00,
2014-02-01 07:03:00,52.1,39.0,29.99,SSW,212,0.0,3.0,62,0.00,,,0.00,weatherlink.com 1.10,2014-02-01 13:03:00,
2014-02-01 07:18:00,52.1,40.0,29.99,WNW,290,1.0,3.0,64,0.00,,,0.00,weatherlink.com 1.10,2014-02-01 13:18:00,
2014-02-01 07:33:00,52.4,41.0,30.00,SSW,210,2.0,4.0,66,0.00,,,0.00,weatherlink.com 1.10,2014-02-01 13:33:00,
2014-02-01 07:48:00,52.9,43.0,30.00,SSW,213,1.0,4.0,68,0.00,,,0.00,weatherlink.com 1.10,2014-02-01 13:48:00,
2014-02-01 08:03:00,53.0,43.0,29.99,SSE,164,0.0,3.0,70,0.00,,,0.00,weatherlink.com 1.10,2014-02-01 14:03:00,
2014-02-01 08:18:00,52.9,44.0,29.97,SW,222,1.0,8.0,73,0.00,,,0.00,weatherlink.com 1.10,2014-02-01 14:18:00,
2014-02-01 08:33:00,53.5,45.0,29.98,SSW,200,2.0,4.0,74,0.00,,,0.00,weatherlink.com 1.10,2014-02-01 14:33:00,
2014-02-01 08:48:00,54.3,46.0,30.00,SW,236,4.0,9.0,74,0.00,,,0.00,weatherlink.com 1.10,2014-02-01 14:48:00,
2014-02-01 09:03:00,54.7,47.0,29.99,SW,214,2.0,5.0,74,0.00,,,0.00,weatherlink.com 1.10,2014-02-01 15:03:00,
2014-02-01 09:18:00,55.8,47.0,29.99,SSW,193,1.0,5.0,73,0.00,,,0.00,weatherlink.com 1.10,2014-02-01 15:18:00,
2014-02-01 09:33:00,56.6,47.0,29.99,SW,221,1.0,6.0,71,0.00,,,0.00,weatherlink.com 1.10,2014-02-01 15:33:00,
2014-02-01 09:48:00,56.9,48.0,29.99,SSE,165,1.0,6.0,72,0.00,,,0.00,weatherlink.com 1.10,2014-02-01 15:48:00,
2014-02-01 10:03:00,57.6,49.0,29.99,South,188,2.0,4.0,72,0.00,,,0.00,weatherlink.com 1.10,2014-02-01 16:03:00,
2014-02-01 10:18:00,58.7,49.0,29.99,South,190,1.0,4.0,70,0.00,,,0.00,weatherlink.com 1.10,2014-02-01 16:18:00,
2014-02-01 10:34:00,59.1,50.0,29.98,WSW,255,2.0,5.0,71,0.00,,,0.00,weatherlink.com 1.10,2014-02-01 16:34:00,
2014-02-01 10:49:00,59.5,50.0,29.99,SSW,203,3.0,5.0,70,0.00,,,0.00,weatherlink.com 1.10,2014-02-01 16:49:00,
2014-02-01 11:04:00,59.9,50.0,29.98,West,265,2.0,6.0,70,0.00,,,0.00,weatherlink.com 1.10,2014-02-01 17:04:00,
2014-02-01 11:19:00,60.8,51.0,29.98,SW,231,2.0,5.0,69,0.00,,,0.00,weatherlink.com 1.10,2014-02-01 17:19:00,
2014-02-01 11:34:00,61.7,51.0,29.97,SW,227,2.0,5.0,68,0.00,,,0.00,weatherlink.com 1.10,2014-02-01 17:34:00,
2014-02-01 11:49:00,61.9,51.0,29.96,SSW,195,3.0,7.0,68,0.00,,,0.00,weatherlink.com 1.10,2014-02-01 17:49:00,
2014-02-01 12:04:00,62.2,51.0,29.96,South,182,2.0,6.0,68,0.00,,,0.00,weatherlink.com 1.10,2014-02-01 18:04:00,
2014-02-01 12:19:00,63.4,52.0,29.95,SSW,209,2.0,5.0,66,0.00,,,0.00,weatherlink.com 1.10,2014-02-01 18:19:00,
2014-02-01 12:34:00,63.5,52.0,29.95,SW,218,5.0,9.0,67,0.00,,,0.00,weatherlink.com 1.10,2014-02-01 18:34:00,
2014-02-01 12:49:00,65.1,53.0,29.93,SSW,211,1.0,7.0,65,0.00,,,0.00,weatherlink.com 1.10,2014-02-01 18:49:00,
2014-02-01 13:04:00,66.2,53.0,29.93,NW,307,1.0,10.0,63,0.00,,,0.00,weatherlink.com 1.10,2014-02-01 19:04:00,
2014-02-01 13:19:00,67.2,54.0,29.92,WSW,253,3.0,8.0,62,0.00,,,0.00,weatherlink.com 1.10,2014-02-01 19:19:00,
2014-02-01 13:34:00,67.9,54.0,29.91,WSW,242,3.0,6.0,61,0.00,,,0.00,weatherlink.com 1.10,2014-02-01 19:34:00,
2014-02-01 13:49:00,67.8,54.0,29.91,South,185,2.0,7.0,61,0.00,,,0.00,weatherlink.com 1.10,2014-02-01 19:49:00,
2014-02-01 14:04:00,66.6,53.0,29.91,WSW,249,2.0,7.0,62,0.00,,,0.00,weatherlink.com 1.10,2014-02-01 20:04:00,
2014-02-01 14:19:00,66.9,54.0,29.90,SW,225,2.0,7.0,63,0.00,,,0.00,weatherlink.com 1.10,2014-02-01 20:19:00,
2014-02-01 14:34:00,67.3,54.0,29.89,SSW,208,1.0,5.0,62,0.00,,,0.00,weatherlink.com 1.10,2014-02-01 20:34:00,
2014-02-01 14:49:00,66.7,54.0,29.89,WSW,245,6.0,7.0,63,0.00,,,0.00,weatherlink.com 1.10,2014-02-01 20:49:00,
2014-02-01 15:04:00,66.2,54.0,29.89,SW,236,2.0,5.0,64,0.00,,,0.00,weatherlink.com 1.10,2014-02-01 21:04:00,
2014-02-01 15:19:00,66.4,54.0,29.89,SE,124,1.0,9.0,64,0.00,,,0.00,weatherlink.com 1.10,2014-02-01 21:19:00,
2014-02-01 15:34:00,66.9,54.0,29.88,SSE,150,1.0,4.0,63,0.00,,,0.00,weatherlink.com 1.10,2014-02-01 21:34:00,
2014-02-01 15:49:00,66.9,54.0,29.88,SSW,210,1.0,4.0,64,0.00,,,0.00,weatherlink.com 1.10,2014-02-01 21:49:00,
2014-02-01 16:04:00,66.6,54.0,29.88,SW,218,3.0,5.0,64,0.00,,,0.00,weatherlink.com 1.10,2014-02-01 22:04:00,
2014-02-01 16:19:00,66.4,54.0,29.88,SSW,213,2.0,9.0,64,0.00,,,0.00,weatherlink.com 1.10,2014-02-01 22:19:00,
2014-02-01 16:34:00,65.9,54.0,29.88,SSE,158,0.0,3.0,65,0.00,,,0.00,weatherlink.com 1.10,2014-02-01 22:34:00,
2014-02-01 16:49:00,65.4,54.0,29.89,WSW,240,0.0,2.0,66,0.00,,,0.00,weatherlink.com 1.10,2014-02-01 22:49:00,
2014-02-01 17:04:00,64.9,53.0,29.88,SSW,210,0.0,1.0,66,0.00,,,0.00,weatherlink.com 1.10,2014-02-01 23:04:00,
2014-02-01 17:19:00,64.4,53.0,29.89,North,352,0.0,1.0,67,0.00,,,0.00,weatherlink.com 1.10,2014-02-01 23:19:00,
2014-02-01 17:34:00,64.2,53.0,29.89,NNE,12,0.0,1.0,67,0.00,,,0.00,weatherlink.com 1.10,2014-02-01 23:34:00,
2014-02-01 17:49:00,64.0,53.0,29.89,SW,219,0.0,1.0,68,0.00,,,0.00,weatherlink.com 1.10,2014-02-01 23:49:00,
2014-02-01 18:04:00,63.4,53.0,29.90,SSW,207,0.0,2.0,69,0.00,,,0.00,weatherlink.com 1.10,2014-02-02 00:04:00,
2014-02-01 18:20:00,64.0,54.0,29.91,SW,236,1.0,4.0,70,0.00,,,0.00,weatherlink.com 1.10,2014-02-02 00:20:00,
2014-02-01 18:34:00,64.9,55.0,29.91,SSE,158,4.0,6.0,70,0.00,,,0.00,weatherlink.com 1.10,2014-02-02 00:34:00,
2014-02-01 18:50:00,64.9,55.0,29.91,SW,236,2.0,5.0,70,0.00,,,0.00,weatherlink.com 1.10,2014-02-02 00:50:00,
2014-02-01 19:05:00,64.5,55.0,29.91,SW,218,0.0,2.0,71,0.00,,,0.00,weatherlink.com 1.10,2014-02-02 01:05:00,
2014-02-01 19:20:00,64.8,55.0,29.91,SSW,208,2.0,4.0,70,0.00,,,0.00,weatherlink.com 1.10,2014-02-02 01:20:00,
2014-02-01 19:35:00,64.7,55.0,29.91,SW,214,6.0,7.0,71,0.00,,,0.00,weatherlink.com 1.10,2014-02-02 01:35:00,
2014-02-01 19:50:00,64.5,55.0,29.91,SSW,206,0.0,3.0,70,0.00,,,0.00,weatherlink.com 1.10,2014-02-02 01:50:00,
2014-02-01 20:05:00,64.0,54.0,29.91,SW,216,0.0,2.0,70,0.00,,,0.00,weatherlink.com 1.10,2014-02-02 02:05:00,
2014-02-01 20:20:00,64.4,54.0,29.91,SW,224,1.0,3.0,69,0.00,,,0.00,weatherlink.com 1.10,2014-02-02 02:20:00,
2014-02-01 20:35:00,64.9,54.0,29.91,SSW,207,1.0,6.0,67,0.00,,,0.00,weatherlink.com 1.10,2014-02-02 02:35:00,
2014-02-01 20:50:00,64.9,54.0,29.92,SSW,212,2.0,5.0,67,0.00,,,0.00,weatherlink.com 1.10,2014-02-02 02:50:00,
2014-02-01 21:05:00,64.8,54.0,29.92,SE,129,1.0,5.0,69,0.00,,,0.00,weatherlink.com 1.10,2014-02-02 03:05:00,
2014-02-01 21:20:00,63.4,55.0,29.92,SSW,208,0.0,4.0,74,0.00,,,0.00,weatherlink.com 1.10,2014-02-02 03:20:00,
2014-02-01 21:35:00,62.2,55.0,29.92,WSW,249,0.0,1.0,76,0.00,,,0.00,weatherlink.com 1.10,2014-02-02 03:35:00,
2014-02-01 21:50:00,62.0,54.0,29.91,SE,126,0.0,1.0,76,0.00,,,0.00,weatherlink.com 1.10,2014-02-02 03:50:00,
2014-02-01 22:05:00,61.8,54.0,29.91,WSW,244,1.0,2.0,76,0.00,,,0.00,weatherlink.com 1.10,2014-02-02 04:05:00,
2014-02-01 22:20:00,62.2,55.0,29.91,WSW,242,1.0,2.0,76,0.00,,,0.00,weatherlink.com 1.10,2014-02-02 04:20:00,
2014-02-01 22:35:00,62.2,54.0,29.91,SE,141,1.0,3.0,75,0.00,,,0.00,weatherlink.com 1.10,2014-02-02 04:35:00,
2014-02-01 22:50:00,62.4,54.0,29.91,SW,224,1.0,2.0,75,0.00,,,0.00,weatherlink.com 1.10,2014-02-02 04:50:00,
2014-02-01 23:05:00,62.1,54.0,29.91,SSW,212,0.0,4.0,76,0.00,,,0.00,weatherlink.com 1.10,2014-02-02 05:05:00,
2014-02-01 23:20:00,61.2,56.0,29.91,SW,222,0.0,1.0,82,0.00,,,0.00,weatherlink.com 1.10,2014-02-02 05:20:00,
2014-02-01 23:35:00,59.5,56.0,29.90,South,180,0.0,0.0,88,0.00,,,0.00,weatherlink.com 1.10,2014-02-02 05:35:00,
2014-02-01 23:50:00,58.5,55.0,29.90,SSW,200,0.0,2.0,89,0.00,,,0.00,weatherlink.com 1.10,2014-02-02 05:50:00,